Weather History for Rawlins, WY

Change the Weather History Date:

Wednesday, May 8, 2013

  Actual Average Record
Temperature  
Mean Temperature 47 °F 47 °F  
Max Temperature 61 °F 61 °F 76 °F (1977)
Min Temperature 33 °F 33 °F 16 °F (2002)
Degree Days  
Heating Degree Days 18 18  
Month to date heating degree days 175 153  
Since 1 July heating degree days 7654 7872  
Cooling Degree Days 0 0  
Month to date cooling degree days 0 0  
Year to date cooling degree days 0 0  
Moisture  
Dew Point 35 °F    
Average Humidity 64    
Maximum Humidity 92    
Minimum Humidity 36    
Precipitation  
Precipitation 0.06 in 0.05 in 0.54 in (1957)
Month to date precipitation 0.07 0.35  
Year to date precipitation 1.66 2.86  
Sea Level Pressure  
Sea Level Pressure 29.97 in    
Wind  
Wind Speed 9 mph (ENE)    
Max Wind Speed 35 mph    
Max Gust Speed 41 mph    
Visibility 10 miles    
Events Rain , Thunderstorm    
T = Trace of Precipitation, MM = Missing Value Source: NWS Daily Summary

Daily Weather History Graph

Daily Weather History Graph

Search for Another Location

Airport:

Trip Planner

Search our weather history database for the weather conditions in past years. The results will help you decide how hot, cold, wet, or windy it might be!

Date:

Astronomy

May. 08, 2013 Rise Set
Actual Time 5:56 AM MDT 8:15 PM MDT
Civil Twilight 5:25 AM MDT 8:46 PM MDT
Nautical Twilight 4:46 AM MDT 9:24 PM MDT
Astronomical Twilight 4:04 AM MDT 10:07 PM MDT
Moon 5:06 AM MDT (5/8) 7:15 PM MDT (5/8)
Length of Visible Light 15h 21m
Length of Day
14h 19m
Waning Crescent, 2% of the Moon is Illuminated
May 8
Waning Crescent
May 9
New
May 17
First Quarter
May 24
Full
May 31
Last Quarter

Hourly Weather History & Observations

Time (MDT) Temp. Windchill Dew Point Humidity Pressure Visibility Wind Dir Wind Speed Gust Speed Precip Events Conditions
12:53 AM 41.0 °F 35.8 °F 35.1 °F 79% 29.93 in 10.0 mi SW 8.1 mph - N/A   Clear
1:53 AM 36.0 °F 33.3 °F 30.9 °F 82% 29.93 in 10.0 mi West 3.5 mph - N/A   Clear
2:53 AM 34.0 °F 29.8 °F 30.9 °F 89% 29.93 in 10.0 mi North 4.6 mph - N/A   Mostly Cloudy
3:53 AM 36.0 °F 29.6 °F 33.1 °F 89% 29.91 in 10.0 mi NW 8.1 mph - N/A   Mostly Cloudy
4:53 AM 37.9 °F - 34.0 °F 86% 29.91 in 10.0 mi Calm Calm - N/A   Overcast
5:53 AM 39.0 °F - 34.0 °F 82% 29.91 in 10.0 mi Calm Calm - N/A   Overcast
6:53 AM 39.9 °F - 35.1 °F 83% 29.92 in 10.0 mi Calm Calm - N/A   Clear
7:53 AM 44.1 °F - 35.1 °F 71% 29.95 in 10.0 mi Calm Calm - N/A   Partly Cloudy
8:53 AM 50.0 °F - 36.0 °F 59% 29.92 in 10.0 mi Calm Calm - N/A   Overcast
9:53 AM 50.0 °F - 36.0 °F 59% 29.94 in 10.0 mi East 4.6 mph - N/A   Overcast
10:53 AM 52.0 °F - 37.0 °F 57% 29.96 in 10.0 mi ESE 5.8 mph - N/A   Overcast
11:53 AM 60.1 °F - 33.1 °F 36% 29.90 in 10.0 mi East 12.7 mph 23.0 mph N/A   Scattered Clouds
12:02 PM 60.8 °F - 33.8 °F 36% 30.08 in 10.0 mi ESE 15.0 mph 20.7 mph N/A Thunderstorm Partly Cloudy
12:19 PM 51.8 °F - 33.8 °F 50% 30.10 in 10.0 mi ENE 26.5 mph 41.4 mph N/A   Mostly Cloudy
12:53 PM 46.9 °F - 39.0 °F 74% 30.02 in 10.0 mi NE 23.0 mph 32.2 mph 0.01 in Rain Light Rain
1:53 PM 48.0 °F - 39.9 °F 74% 30.04 in 9.0 mi NE 11.5 mph 21.9 mph 0.02 in Rain Light Rain
2:53 PM 51.1 °F - 39.9 °F 66% 30.03 in 10.0 mi NNE 18.4 mph 24.2 mph 0.00 in   Mostly Cloudy
3:53 PM 54.0 °F - 36.0 °F 51% 29.99 in 10.0 mi East 20.7 mph 26.5 mph N/A   Overcast
4:53 PM 54.0 °F - 35.1 °F 49% 29.97 in 10.0 mi SE 18.4 mph 24.2 mph 0.00 in   Overcast
5:53 PM 55.9 °F - 33.1 °F 42% 29.96 in 10.0 mi East 9.2 mph 20.7 mph N/A   Mostly Cloudy
6:53 PM 55.9 °F - 32.0 °F 40% 29.95 in 10.0 mi East 5.8 mph - N/A   Overcast
7:53 PM 48.9 °F - 37.9 °F 66% 29.97 in 10.0 mi ENE 10.4 mph - 0.03 in   Overcast
8:53 PM 50.0 °F - 37.0 °F 61% 29.99 in 10.0 mi East 16.1 mph 21.9 mph N/A   Overcast
9:53 PM 45.0 °F 40.1 °F 37.0 °F 74% 30.03 in 10.0 mi East 9.2 mph - N/A   Overcast
10:53 PM 45.0 °F 39.3 °F 37.0 °F 74% 30.02 in 10.0 mi East 11.5 mph - N/A   Overcast
11:53 PM 44.1 °F 40.8 °F 37.0 °F 76% 30.00 in 10.0 mi ENE 5.8 mph - N/A   Overcast